Location: Brivio
(45.7333°N, 9.4500°E)
Time: 20:04:27
(UTC+00:00)

Cosmos 2016 Rocket - Pass Details

Date: 18 October 2019
Orbit: 948 x 1000 km, 83.0° (Epoch: 18 November)

Event Time Altitude Azimuth Distance (km) Brightness Sun altitude
Rises 18:34:44 0° 355° (N) 3,680 7.2 -22.1°
Reaches altitude 10° 18:37:21 10° 1° (N) 2,737 6.4 -22.6°
Maximum altitude 18:43:26 50° 76° (ENE) 1,237 4.1 -23.6°
Enters shadow 18:43:51 49° 89° (E) 1,249 4.1 -23.7°
